When you browse on this site, cookies collect data to enhance your experience and personalize the content and advertising you see.
Visit our Privacy Policy to learn more. By continuing to use the site, you agree to this use of cookies and data.
  • en France
  • Liste des pays
  • À 7 jours
  • Température de l'eau
  • Carte satellitaire
  • Carte météo
  • Widgets météo
  • user-avatar
    Se connecter

    Météo par heure à Adélaïde

    Ce jour, 12 Décembre, Mercredi

    Heure Température Précipitation Vent Pression Humidité
    00:00 +26°C° 0.1 mm 2 m/s 751 mmHg 40%
    01:00 +25°C° 0.1 mm 2 m/s 751 mmHg 42%
    02:00 +25°C° 0.1 mm 2 m/s 750 mmHg 43%
    03:00 +25°C° 0 mm 1 m/s 750 mmHg 47%
    04:00 +25°C° 0.2 mm 1 m/s 750 mmHg 49%
    05:00 +26°C° 0.2 mm 2 m/s 750 mmHg 52%
    06:00 +27°C° 0.2 mm 2 m/s 750 mmHg 54%
    07:00 +28°C° 0 mm 2 m/s 750 mmHg 48%
    08:00 +30°C° 0 mm 3 m/s 750 mmHg 41%
    09:00 +33°C° 0 mm 3 m/s 750 mmHg 37%
    10:00 +34°C° 0 mm 3 m/s 749 mmHg 34%
    11:00 +34°C° 0 mm 3 m/s 749 mmHg 31%
    12:00 +35°C° 0 mm 3 m/s 748 mmHg 29%
    13:00 +35°C° 0 mm 4 m/s 748 mmHg 30%
    14:00 +35°C° 0 mm 4 m/s 747 mmHg 31%
    15:00 +35°C° 0 mm 4 m/s 747 mmHg 32%
    16:00 +33°C° 0.1 mm 5 m/s 747 mmHg 35%
    17:00 +32°C° 0.1 mm 5 m/s 747 mmHg 39%
    18:00 +30°C° 0.1 mm 5 m/s 747 mmHg 43%
    19:00 +28°C° 0.1 mm 6 m/s 747 mmHg 49%
    20:00 +26°C° 0.1 mm 6 m/s 748 mmHg 55%
    21:00 +22°C° 0.1 mm 7 m/s 749 mmHg 62%
    22:00 +21°C° 0.1 mm 7 m/s 749 mmHg 68%
    23:00 +20°C° 0.1 mm 7 m/s 749 mmHg 74%

    Demain, 13 Décembre, Jeudi

    Heure Température Précipitation Vent Pression Humidité
    00:00 +18°C° 0.1 mm 7 m/s 750 mmHg 80%
    01:00 +18°C° 0.2 mm 7 m/s 750 mmHg 78%
    02:00 +17°C° 0.2 mm 8 m/s 750 mmHg 76%
    03:00 +17°C° 0.2 mm 9 m/s 750 mmHg 74%
    04:00 +16°C° 0.2 mm 9 m/s 750 mmHg 72%
    05:00 +16°C° 0.2 mm 9 m/s 751 mmHg 69%
    06:00 +15°C° 0.2 mm 9 m/s 751 mmHg 66%
    07:00 +14°C° 0.3 mm 10 m/s 751 mmHg 62%
    08:00 +16°C° 0.3 mm 10 m/s 752 mmHg 59%
    09:00 +16°C° 0.3 mm 11 m/s 752 mmHg 55%
    10:00 +16°C° 0.2 mm 11 m/s 752 mmHg 53%
    11:00 +17°C° 0.2 mm 12 m/s 752 mmHg 50%
    12:00 +17°C° 0.2 mm 12 m/s 752 mmHg 48%
    13:00 +17°C° 0.2 mm 12 m/s 752 mmHg 49%
    14:00 +15°C° 0.2 mm 12 m/s 752 mmHg 50%
    15:00 +16°C° 0.2 mm 11 m/s 753 mmHg 52%
    16:00 +14°C° 0.1 mm 11 m/s 753 mmHg 56%
    17:00 +14°C° 0.1 mm 11 m/s 753 mmHg 60%
    18:00 +13°C° 0.1 mm 10 m/s 753 mmHg 64%
    19:00 +13°C° 0.1 mm 10 m/s 753 mmHg 65%
    20:00 +13°C° 0.1 mm 10 m/s 753 mmHg 66%
    21:00 +13°C° 0.1 mm 10 m/s 754 mmHg 67%
    22:00 +13°C° 0.2 mm 10 m/s 753 mmHg 69%
    23:00 +13°C° 0.2 mm 11 m/s 753 mmHg 71%

    Après-demain, 14 Décembre, Vendredi

    Heure Température Précipitation Vent Pression Humidité
    00:00 +13°C° 0.2 mm 11 m/s 752 mmHg 72%
    01:00 +13°C° 0.7 mm 11 m/s 752 mmHg 75%
    02:00 +13°C° 0.7 mm 11 m/s 751 mmHg 77%
    03:00 +13°C° 0.7 mm 11 m/s 750 mmHg 79%
    04:00 +14°C° 0.7 mm 11 m/s 750 mmHg 80%
    05:00 +14°C° 0.7 mm 12 m/s 750 mmHg 81%
    06:00 +15°C° 0.7 mm 12 m/s 750 mmHg 82%
    07:00 +16°C° 0.1 mm 11 m/s 750 mmHg 81%
    08:00 +17°C° 0.1 mm 11 m/s 750 mmHg 81%
    09:00 +17°C° 0.1 mm 11 m/s 750 mmHg 80%
    10:00 +17°C° 0.1 mm 11 m/s 750 mmHg 81%
    11:00 +17°C° 0.1 mm 11 m/s 750 mmHg 81%
    12:00 +18°C° 0.1 mm 10 m/s 750 mmHg 81%
    13:00 +18°C° 0.2 mm 10 m/s 750 mmHg 82%
    14:00 +18°C° 0.2 mm 10 m/s 749 mmHg 84%
    15:00 +18°C° 0.2 mm 9 m/s 749 mmHg 85%
    16:00 +18°C° 0.2 mm 9 m/s 749 mmHg 86%
    17:00 +18°C° 0.2 mm 8 m/s 750 mmHg 86%
    18:00 +18°C° 0.2 mm 8 m/s 750 mmHg 87%
    19:00 +18°C° 0.2 mm 7 m/s 750 mmHg 87%
    20:00 +17°C° 0.2 mm 7 m/s 750 mmHg 88%
    21:00 +17°C° 0.2 mm 6 m/s 751 mmHg 88%
    22:00 +17°C° 0.1 mm 5 m/s 751 mmHg 89%
    23:00 +17°C° 0.1 mm 5 m/s 750 mmHg 90%

    15 Décembre, Samedi

    Heure Température Précipitation Vent Pression Humidité
    00:00 +18°C° 0.1 mm 4 m/s 750 mmHg 90%
    01:00 +18°C° 0.1 mm 4 m/s 750 mmHg 91%
    02:00 +18°C° 0.1 mm 4 m/s 750 mmHg 91%
    03:00 +17°C° 0.1 mm 4 m/s 750 mmHg 91%
    04:00 +18°C° 0.1 mm 4 m/s 750 mmHg 90%
    05:00 +18°C° 0.1 mm 4 m/s 750 mmHg 89%
    06:00 +18°C° 0.1 mm 4 m/s 750 mmHg 87%
    07:00 +19°C° 0 mm 4 m/s 751 mmHg 82%
    08:00 +20°C° 0 mm 4 m/s 751 mmHg 77%
    09:00 +21°C° 0 mm 4 m/s 751 mmHg 72%
    10:00 +22°C° 0 mm 5 m/s 751 mmHg 68%
    11:00 +23°C° 0 mm 5 m/s 750 mmHg 64%
    12:00 +25°C° 0 mm 5 m/s 750 mmHg 59%
    13:00 +24°C° 0 mm 6 m/s 750 mmHg 62%
    14:00 +23°C° 0 mm 6 m/s 749 mmHg 64%
    15:00 +23°C° 0 mm 6 m/s 749 mmHg 66%
    16:00 +22°C° 0 mm 6 m/s 749 mmHg 71%
    17:00 +21°C° 0 mm 5 m/s 750 mmHg 75%
    18:00 +20°C° 0 mm 5 m/s 750 mmHg 79%
    19:00 +20°C° 0 mm 5 m/s 750 mmHg 81%
    20:00 +19°C° 0 mm 4 m/s 751 mmHg 83%
    21:00 +19°C° 0 mm 4 m/s 751 mmHg 85%
    22:00 +19°C° 0 mm 4 m/s 751 mmHg 86%
    23:00 +19°C° 0 mm 4 m/s 751 mmHg 87%

    16 Décembre, Dimanche

    Heure Température Précipitation Vent Pression Humidité
    00:00 +19°C° 0 mm 4 m/s 751 mmHg 87%
    01:00 +19°C° 0.1 mm 4 m/s 751 mmHg 88%
    02:00 +19°C° 0.1 mm 4 m/s 751 mmHg 89%
    03:00 +19°C° 0.1 mm 4 m/s 751 mmHg 89%
    04:00 +19°C° 0 mm 4 m/s 751 mmHg 89%
    05:00 +19°C° 0 mm 4 m/s 752 mmHg 89%
    06:00 +19°C° 0 mm 4 m/s 752 mmHg 89%
    07:00 +19°C° 0 mm 4 m/s 752 mmHg 85%
    08:00 +20°C° 0 mm 4 m/s 753 mmHg 82%
    09:00 +21°C° 0 mm 4 m/s 753 mmHg 79%
    10:00 +21°C° 0 mm 4 m/s 753 mmHg 76%
    11:00 +22°C° 0 mm 4 m/s 753 mmHg 73%
    12:00 +22°C° 0 mm 4 m/s 753 mmHg 70%
    13:00 +23°C° 0 mm 4 m/s 753 mmHg 67%
    14:00 +25°C° 0 mm 4 m/s 753 mmHg 63%
    15:00 +26°C° 0 mm 4 m/s 752 mmHg 60%
    16:00 +25°C° 0 mm 4 m/s 753 mmHg 63%
    17:00 +23°C° 0 mm 4 m/s 753 mmHg 66%
    18:00 +22°C° 0 mm 5 m/s 753 mmHg 69%
    19:00 +21°C° 0 mm 4 m/s 754 mmHg 73%
    20:00 +21°C° 0 mm 4 m/s 754 mmHg 77%
    21:00 +20°C° 0 mm 4 m/s 754 mmHg 81%
    22:00 +19°C° 0 mm 3 m/s 754 mmHg 82%
    23:00 +19°C° 0 mm 3 m/s 755 mmHg 84%

    17 Décembre, Lundi

    Heure Température Précipitation Vent Pression Humidité
    00:00 +19°C° 0 mm 2 m/s 755 mmHg 85%
    01:00 +18°C° 0 mm 2 m/s 754 mmHg 87%
    02:00 +18°C° 0 mm 2 m/s 754 mmHg 88%
    03:00 +18°C° 0 mm 2 m/s 754 mmHg 89%
    04:00 +18°C° 0 mm 3 m/s 754 mmHg 87%
    05:00 +19°C° 0 mm 3 m/s 755 mmHg 86%
    06:00 +19°C° 0 mm 3 m/s 755 mmHg 84%
    07:00 +20°C° 0 mm 3 m/s 755 mmHg 78%
    08:00 +22°C° 0 mm 3 m/s 755 mmHg 71%
    09:00 +24°C° 0 mm 3 m/s 756 mmHg 65%
    10:00 +26°C° 0 mm 3 m/s 755 mmHg 59%
    11:00 +27°C° 0 mm 3 m/s 755 mmHg 54%
    12:00 +29°C° 0 mm 4 m/s 755 mmHg 48%
    13:00 +30°C° 0 mm 4 m/s 754 mmHg 47%
    14:00 +30°C° 0 mm 5 m/s 754 mmHg 46%
    15:00 +30°C° 0 mm 5 m/s 754 mmHg 45%
    16:00 +29°C° 0 mm 5 m/s 754 mmHg 50%
    17:00 +28°C° 0 mm 6 m/s 754 mmHg 55%
    18:00 +26°C° 0 mm 6 m/s 754 mmHg 60%
    19:00 +24°C° 0 mm 6 m/s 755 mmHg 64%
    20:00 +23°C° 0 mm 6 m/s 755 mmHg 69%
    21:00 +22°C° 0 mm 5 m/s 755 mmHg 73%
    22:00 +22°C° 0 mm 5 m/s 755 mmHg 73%
    23:00 +22°C° 0 mm 5 m/s 755 mmHg 74%
    Voir plus